KS4XQ Weather Reports


Display with metric or nautical units.
time (UTC)temp
F
wind
direction
speed
MPH
gust
MPH
rain 1hr
in
rain 24hr
in
rain mn
in
humidity
%
barometer
mb
20260901235807 86 80 0.0 0.0 0.00 0.00 0.00 64 1018.1
20260901235408 86 80 0.0 0.0 0.00 0.00 0.00 64 1018.1
20260901235009 87 80 0.0 0.0 0.00 0.00 0.00 62 1018.1
20260901234807 87 80 0.0 0.0 0.00 0.00 0.00 62 1018.0
20260901234408 87 80 0.0 0.0 0.00 0.00 0.00 62 1018.1
20260901234207 87 80 0.0 0.0 0.00 0.00 0.00 62 1018.1
20260901234009 87 80 0.0 0.0 0.00 0.00 0.00 61 1018.1
20260901233408 88 80 0.0 0.0 0.00 0.00 0.00 62 1018.1
20260901233207 88 80 0.0 0.0 0.00 0.00 0.00 62 1018.1
20260901233009 88 80 0.0 0.0 0.00 0.00 0.00 61 1018.1
20260901232807 88 80 0.0 0.0 0.00 0.00 0.00 60 1018.1
20260901232607 88 80 0.0 0.0 0.00 0.00 0.00 59 1018.2
20260901232408 88 80 0.0 0.0 0.00 0.00 0.00 60 1018.1
20260901232207 88 80 0.0 0.0 0.00 0.00 0.00 60 1018.2
20260901231807 89 80 0.0 0.0 0.00 0.00 0.00 59 1018.1
20260901231607 89 80 0.0 0.0 0.00 0.00 0.00 59 1018.1
20260901231409 89 80 0.0 0.0 0.00 0.00 0.00 60 1018.1
20260901231207 89 80 0.0 0.0 0.00 0.00 0.00 58 1018.2
20260901231009 89 80 0.0 0.0 0.00 0.00 0.00 57 1018.2
20260901230807 89 84 0.0 0.0 0.00 0.00 0.00 58 1018.2
20260901230607 90 84 0.0 0.0 0.00 0.00 0.00 58 1018.1
20260901230408 90 84 0.0 0.0 0.00 0.00 0.00 57 1018.2
20260901230207 90 84 0.0 0.0 0.00 0.00 0.00 57 1018.2
20260901225807 90 84 0.0 0.0 0.00 0.00 0.00 57 1018.1
20260901225607 90 84 0.0 0.0 0.00 0.00 0.00 54 1018.1
20260901225207 91 80 0.0 0.0 0.00 0.00 0.00 57 1018.1
20260901225007 91 80 0.0 0.0 0.00 0.00 0.00 57 1018.1
20260901224808 91 80 0.0 0.0 0.00 0.00 0.00 57 1018.1
20260901224607 91 80 0.0 0.0 0.00 0.00 0.00 57 1018.1
20260901224410 91 80 0.0 0.0 0.00 0.00 0.00 57 1018.1
20260901224206 91 80 0.0 0.0 0.00 0.00 0.00 57 1018.0
20260901224007 91 80 0.0 0.0 0.00 0.00 0.00 57 1018.0
20260901223807 92 55 0.0 0.0 0.00 0.00 0.00 57 1018.0
20260901223607 92 55 0.0 0.0 0.00 0.00 0.00 57 1018.0
20260901223408 92 55 0.0 0.0 0.00 0.00 0.00 56 1018.0
20260901223207 92 55 0.0 0.0 0.00 0.00 0.00 57 1018.0
20260901223009 92 79 0.0 0.0 0.00 0.00 0.00 55 1018.0
20260901222807 92 182 0.0 0.0 0.00 0.00 0.00 56 1018.0
20260901222608 92 182 0.0 0.0 0.00 0.00 0.00 57 1018.0
20260901222408 92 182 0.0 0.0 0.00 0.00 0.00 56 1018.0
20260901222207 92 182 0.0 0.0 0.00 0.00 0.00 56 1017.9
20260901222009 92 182 0.0 0.0 0.00 0.00 0.00 56 1017.9
20260901221807 92 182 0.0 0.0 0.00 0.00 0.00 56 1017.9
20260901221606 92 182 0.0 0.0 0.00 0.00 0.00 55 1017.9
20260901221010 92 159 0.0 0.0 0.00 0.00 0.00 55 1017.8
20260901220807 92 159 0.0 0.0 0.00 0.00 0.00 54 1017.8
20260901220607 92 128 0.0 0.0 0.00 0.00 0.00 53 1017.8
20260901220207 92 49 0.0 0.0 0.00 0.00 0.00 52 1017.8
20260901220012 92 234 0.0 0.0 0.00 0.00 0.00 54 1017.8
20260901215809 92 235 0.0 0.0 0.00 0.00 0.00 52 1017.9
20260901215408 93 73 0.0 0.0 0.00 0.00 0.00 55 1017.8
20260901215206 93 79 0.0 0.0 0.00 0.00 0.00 53 1017.8
20260901215009 93 79 0.0 0.0 0.00 0.00 0.00 56 1017.8
20260901214807 93 126 0.0 0.0 0.00 0.00 0.00 54 1017.8
20260901214606 93 194 0.0 0.0 0.00 0.00 0.00 56 1017.7
20260901214408 93 194 0.0 0.0 0.00 0.00 0.00 55 1017.8
20260901214207 93 194 0.0 0.0 0.00 0.00 0.00 55 1017.8
20260901214009 93 195 0.0 0.0 0.00 0.00 0.00 53 1017.8
20260901213807 93 189 0.0 0.0 0.00 0.00 0.00 53 1017.8
20260901213607 93 189 0.0 0.0 0.00 0.00 0.00 52 1017.8
20260901213207 93 350 0.0 0.0 0.00 0.00 0.00 53 1017.8
20260901213009 93 5 0.0 0.0 0.00 0.00 0.00 52 1017.8
20260901212807 93 5 0.0 0.0 0.00 0.00 0.00 54 1017.8
20260901212608 93 5 0.0 0.0 0.00 0.00 0.00 51 1017.8
20260901212407 93 5 0.0 0.0 0.00 0.00 0.00 51 1017.8
20260901212207 93 347 0.0 0.0 0.00 0.00 0.00 50 1017.8
20260901212010 93 52 0.0 0.0 0.00 0.00 0.00 51 1017.9
20260901211807 93 79 0.0 0.0 0.00 0.00 0.00 51 1017.9
20260901211609 93 69 0.0 0.0 0.00 0.00 0.00 52 1017.9
20260901211407 93 331 0.0 0.0 0.00 0.00 0.00 52 1017.9
20260901211206 93 277 0.0 0.0 0.00 0.00 0.00 51 1017.8
20260901210608 94 346 0.0 0.0 0.00 0.00 0.00 51 1017.8
20260901210407 94 24 0.0 0.0 0.00 0.00 0.00 52 1017.9
20260901210209 94 69 0.0 0.0 0.00 0.00 0.00 51 1017.9
20260901210008 94 276 0.0 0.0 0.00 0.00 0.00 51 1017.9
20260901205807 94 276 0.0 0.0 0.00 0.00 0.00 50 1018.0
20260901205608 94 276 0.0 0.0 0.00 0.00 0.00 49 1017.9
20260901205407 94 276 0.0 0.0 0.00 0.00 0.00 49 1017.9
20260901205214 95 246 0.0 0.0 0.00 0.00 0.00 48 1017.9
20260901205008 95 290 0.0 0.0 0.00 0.00 0.00 49 1017.9
20260901204407 95 140 0.0 0.0 0.00 0.00 0.00 49 1018.0
20260901204210 96 122 0.0 0.0 0.00 0.00 0.00 50 1018.0
20260901204007 96 122 0.0 0.0 0.00 0.00 0.00 50 1018.1
20260901203807 96 17 0.0 0.0 0.00 0.00 0.00 47 1018.0
20260901203407 96 55 0.0 0.0 0.00 0.00 0.00 47 1018.1
20260901203209 96 67 0.0 0.0 0.00 0.00 0.00 48 1018.1
20260901203006 96 211 0.0 0.0 0.00 0.00 0.00 48 1018.1
20260901202808 96 125 0.0 0.0 0.00 0.00 0.00 48 1018.1
20260901202406 96 355 0.0 0.0 0.00 0.00 0.00 46 1018.1
20260901202208 96 147 0.0 0.0 0.00 0.00 0.00 46 1018.1
20260901202007 96 147 0.0 0.0 0.00 0.00 0.00 45 1018.1
20260901201808 97 147 0.0 0.0 0.00 0.00 0.00 45 1018.0
20260901201607 97 145 0.0 0.0 0.00 0.00 0.00 43 1018.1
20260901201407 97 67 0.0 0.0 0.00 0.00 0.00 48 1018.0
20260901201210 97 92 0.0 0.0 0.00 0.00 0.00 47 1018.1
20260901201007 97 92 0.0 0.0 0.00 0.00 0.00 45 1018.1
20260901200809 97 189 0.0 0.0 0.00 0.00 0.00 45 1018.1
20260901200607 97 155 0.0 0.0 0.00 0.00 0.00 46 1018.1
20260901200406 97 128 0.0 0.0 0.00 0.00 0.00 45 1018.2
20260901200207 97 78 0.0 0.0 0.00 0.00 0.00 45 1018.2
20260901200009 97 73 0.0 0.0 0.00 0.00 0.00 46 1018.2
20260901195407 96 85 0.0 0.0 0.00 0.00 0.00 47 1018.3
20260901195207 96 107 0.0 0.0 0.00 0.00 0.00 46 1018.3
20260901195007 96 95 0.0 0.0 0.00 0.00 0.00 45 1018.4
20260901194809 96 82 0.0 0.0 0.00 0.00 0.00 48 1018.4
20260901194607 96 14 0.0 0.0 0.00 0.00 0.00 45 1018.4
20260901194407 96 184 0.0 0.0 0.00 0.00 0.00 48 1018.5
20260901194207 96 188 0.0 0.0 0.00 0.00 0.00 46 1018.4
20260901193808 96 337 0.0 0.0 0.00 0.00 0.00 45 1018.4
20260901193607 97 337 0.0 0.0 0.00 0.00 0.00 48 1018.5
20260901193409 97 320 0.0 0.0 0.00 0.00 0.00 48 1018.5
20260901193207 96 194 0.0 0.0 0.00 0.00 0.00 47 1018.6
20260901193006 96 169 0.0 0.0 0.00 0.00 0.00 48 1018.6
20260901192807 96 169 0.0 0.0 0.00 0.00 0.00 48 1018.7
20260901192607 96 190 0.0 0.0 0.00 0.00 0.00 47 1018.7
20260901192410 96 355 0.0 0.0 0.00 0.00 0.00 50 1018.7
20260901192206 96 148 0.0 0.0 0.00 0.00 0.00 51 1018.7
20260901192007 96 49 0.0 0.0 0.00 0.00 0.00 53 1018.7
20260901191607 95 50 0.0 0.0 0.00 0.00 0.00 52 1018.7
20260901191408 95 330 0.0 0.0 0.00 0.00 0.00 53 1018.6
20260901191207 95 123 0.0 0.0 0.00 0.00 0.00 52 1018.6
20260901191009 95 219 0.0 0.0 0.00 0.00 0.00 51 1018.7
20260901190808 95 216 0.0 0.0 0.00 0.00 0.00 52 1018.8
20260901190607 94 199 0.0 0.0 0.00 0.00 0.00 51 1018.8
20260901190206 94 315 0.0 0.0 0.00 0.00 0.00 50 1018.8
20260901190011 94 5 0.0 0.0 0.00 0.00 0.00 48 1018.8
20260901185806 94 339 0.0 0.0 0.00 0.00 0.00 52 1018.9
20260901185607 94 339 0.0 0.0 0.00 0.00 0.00 52 1018.9
20260901185206 94 317 0.0 0.0 0.00 0.00 0.00 55 1018.9
20260901185005 94 334 0.0 0.0 0.00 0.00 0.00 51 1018.9
20260901184806 95 148 0.0 0.0 0.00 0.00 0.00 50 1019.1
20260901184606 95 5 0.0 0.0 0.00 0.00 0.00 51 1019.0
20260901184408 95 5 0.0 0.0 0.00 0.00 0.00 51 1019.0
20260901184206 96 51 0.0 0.0 0.00 0.00 0.00 51 1019.1
20260901184006 96 51 0.0 0.0 0.00 0.00 0.00 54 1019.0
20260901183805 95 119 0.0 0.0 0.00 0.00 0.00 56 1019.1
20260901183606 95 192 0.0 0.0 0.00 0.00 0.00 50 1019.0
20260901183407 95 278 0.0 0.0 0.00 0.00 0.00 50 1019.1
20260901183205 95 124 0.0 0.0 0.00 0.00 0.00 49 1019.1
20260901183008 95 62 0.0 0.0 0.00 0.00 0.00 49 1019.2
20260901182805 96 317 0.0 0.0 0.00 0.00 0.00 53 1019.2
20260901182605 96 90 0.0 0.0 0.00 0.00 0.00 51 1019.2
20260901182407 96 20 0.0 0.0 0.00 0.00 0.00 52 1019.2
20260901182205 97 176 0.0 0.0 0.00 0.00 0.00 49 1019.3
20260901182007 97 207 0.0 0.0 0.00 0.00 0.00 51 1019.3
20260901181806 97 188 0.0 0.0 0.00 0.00 0.00 52 1019.3
20260901181608 97 126 0.0 0.0 0.00 0.00 0.00 51 1019.2
20260901181406 97 67 0.0 0.0 0.00 0.00 0.00 55 1019.1
20260901181205 97 30 0.0 0.0 0.00 0.00 0.00 49 1019.1
20260901180806 96 202 0.0 0.0 0.00 0.00 0.00 54 1019.1
20260901180607 96 204 0.0 0.0 0.00 0.00 0.00 52 1019.2
20260901180208 95 160 0.0 0.0 0.00 0.00 0.00 51 1019.2
20260901180008 96 179 0.0 0.0 0.00 0.00 0.00 52 1019.2
20260901175606 95 44 0.0 0.0 0.00 0.00 0.00 53 1019.2
20260901175207 95 109 0.0 0.0 0.00 0.00 0.00 53 1019.2
20260901175006 95 100 0.0 0.0 0.00 0.00 0.00 56 1019.4
20260901174808 94 109 0.0 0.0 0.00 0.00 0.00 56 1019.4
20260901174606 94 198 0.0 0.0 0.00 0.00 0.00 53 1019.5
20260901174405 94 213 0.0 0.0 0.00 0.00 0.00 55 1019.5
20260901174207 94 223 0.0 0.0 0.00 0.00 0.00 59 1019.5
20260901173809 93 209 0.0 0.0 0.00 0.00 0.00 58 1019.5
20260901173406 93 299 0.0 0.0 0.00 0.00 0.00 55 1019.6
20260901173206 93 225 0.0 0.0 0.00 0.00 0.00 55 1019.5
20260901173005 93 225 0.0 0.0 0.00 0.00 0.00 59 1019.6
20260901172809 93 215 0.0 0.0 0.00 0.00 0.00 54 1019.6
20260901172606 93 322 0.0 0.0 0.00 0.00 0.00 57 1019.6
20260901172406 92 28 0.0 0.0 0.00 0.00 0.00 59 1019.7
20260901172206 93 28 0.0 0.0 0.00 0.00 0.00 59 1019.8
20260901172006 93 28 0.0 0.0 0.00 0.00 0.00 58 1019.6
20260901171809 93 290 0.0 0.0 0.00 0.00 0.00 56 1019.7
20260901171406 93 249 0.0 0.0 0.00 0.00 0.00 55 1019.7
20260901171206 94 275 0.0 0.0 0.00 0.00 0.00 57 1019.8
20260901171006 94 355 0.0 0.0 0.00 0.00 0.00 59 1019.8
20260901170809 94 254 0.0 0.0 0.00 0.00 0.00 56 1019.8
20260901170606 94 111 0.0 0.0 0.00 0.00 0.00 55 1019.9
20260901170406 94 115 0.0 0.0 0.00 0.00 0.00 58 1019.9
20260901170008 94 17 0.0 0.0 0.00 0.00 0.00 57 1019.9
20260901165808 94 83 0.0 0.0 0.00 0.00 0.00 58 1019.9
20260901165606 94 94 0.0 0.0 0.00 0.00 0.00 61 1020.0
20260901165406 94 43 0.0 0.0 0.00 0.00 0.00 59 1020.0
20260901165207 93 113 0.0 0.0 0.00 0.00 0.00 61 1020.1
20260901165006 93 113 0.0 0.0 0.00 0.00 0.00 59 1020.2
20260901164808 93 321 0.0 0.0 0.00 0.00 0.00 61 1020.3
20260901164606 93 208 0.0 0.0 0.00 0.00 0.00 61 1020.3
20260901164406 93 208 0.0 0.0 0.00 0.00 0.00 62 1020.3
20260901164208 92 184 0.0 0.0 0.00 0.00 0.00 62 1020.3
20260901164006 92 215 0.0 0.0 0.00 0.00 0.00 61 1020.4
20260901163808 92 217 0.0 0.0 0.00 0.00 0.00 63 1020.4
20260901163605 92 259 0.0 0.0 0.00 0.00 0.00 60 1020.3
20260901163407 92 294 0.0 0.0 0.00 0.00 0.00 60 1020.2
20260901163206 92 275 0.0 0.0 0.00 0.00 0.00 62 1020.3
20260901163006 92 165 0.0 0.0 0.00 0.00 0.00 62 1020.3
20260901162808 91 245 0.0 0.0 0.00 0.00 0.00 63 1020.3
20260901162406 91 289 0.0 0.0 0.00 0.00 0.00 59 1020.4
20260901162205 91 278 0.0 0.0 0.00 0.00 0.00 62 1020.5
20260901162006 91 261 0.0 0.0 0.00 0.00 0.00 62 1020.5
20260901161807 91 324 0.0 0.0 0.00 0.00 0.00 61 1020.4
20260901161606 90 171 0.0 0.0 0.00 0.00 0.00 63 1020.4
20260901161206 90 232 0.0 0.0 0.00 0.00 0.00 66 1020.4
20260901161006 90 217 0.0 0.0 0.00 0.00 0.00 65 1020.5
20260901160808 90 273 0.0 0.0 0.00 0.00 0.00 64 1020.5
20260901160606 90 273 0.0 0.0 0.00 0.00 0.00 62 1020.5
20260901160406 90 331 0.0 0.0 0.00 0.00 0.00 62 1020.6
20260901160206 90 304 0.0 0.0 0.00 0.00 0.00 64 1020.6
20260901160008 90 267 0.0 0.0 0.00 0.00 0.00 63 1020.7
20260901155406 89 199 0.0 0.0 0.00 0.00 0.00 65 1020.7
20260901155206 89 275 0.0 0.0 0.00 0.00 0.00 67 1020.8
20260901155006 89 344 0.0 0.0 0.00 0.00 0.00 64 1020.7
20260901154807 89 277 0.0 0.0 0.00 0.00 0.00 66 1020.6
20260901154406 88 306 0.0 0.0 0.00 0.00 0.00 66 1020.8
20260901154206 88 230 0.0 0.0 0.00 0.00 0.00 70 1020.7
20260901154006 88 230 0.0 0.0 0.00 0.00 0.00 69 1020.9
20260901153808 88 213 0.0 0.0 0.00 0.00 0.00 67 1020.8
20260901153606 87 213 0.0 0.0 0.00 0.00 0.00 68 1020.8
20260901153406 87 271 0.0 0.0 0.00 0.00 0.00 69 1020.8
20260901153206 87 235 0.0 0.0 0.00 0.00 0.00 71 1020.8
20260901153006 87 265 0.0 0.0 0.00 0.00 0.00 67 1020.7
20260901152808 86 284 0.0 0.0 0.00 0.00 0.00 69 1020.8
20260901152606 86 292 0.0 0.0 0.00 0.00 0.00 71 1020.8
20260901152406 86 292 0.0 0.0 0.00 0.00 0.00 73 1020.9
20260901152206 86 299 0.0 0.0 0.00 0.00 0.00 72 1020.9
20260901152006 86 343 0.0 0.0 0.00 0.00 0.00 69 1020.9
20260901151807 85 343 0.0 0.0 0.00 0.00 0.00 69 1020.9
20260901151605 85 342 0.0 0.0 0.00 0.00 0.00 70 1020.9
20260901151406 85 342 0.0 0.0 0.00 0.00 0.00 73 1020.9
20260901151206 85 342 0.0 0.0 0.00 0.00 0.00 72 1020.9
20260901151006 84 329 0.0 0.0 0.00 0.00 0.00 72 1021.0
20260901150807 84 329 0.0 0.0 0.00 0.00 0.00 75 1020.9
20260901150606 84 329 0.0 0.0 0.00 0.00 0.00 74 1021.0
20260901150406 83 329 0.0 0.0 0.00 0.00 0.00 75 1021.0
20260901150206 83 329 0.0 0.0 0.00 0.00 0.00 76 1021.0
20260901150008 83 329 0.0 0.0 0.00 0.00 0.00 76 1021.0
20260901145808 82 329 0.0 0.0 0.00 0.00 0.00 79 1020.9
20260901145606 81 329 0.0 0.0 0.00 0.00 0.00 81 1021.0
20260901145406 81 217 0.0 0.0 0.00 0.00 0.00 82 1020.9
20260901145206 81 219 0.0 0.0 0.00 0.00 0.00 85 1021.0
20260901145006 80 149 0.0 0.0 0.00 0.00 0.00 86 1020.9
20260901144809 80 149 0.0 0.0 0.00 0.00 0.00 83 1020.9
20260901144606 79 173 0.0 0.0 0.00 0.00 0.00 87 1020.9
20260901144406 79 294 0.0 0.0 0.00 0.00 0.00 87 1020.9
20260901144206 78 284 0.0 0.0 0.00 0.00 0.00 89 1020.8
20260901144005 78 351 0.0 0.0 0.00 0.00 0.00 87 1020.9
20260901143808 78 351 0.0 0.0 0.00 0.00 0.00 87 1020.9
20260901143606 77 351 0.0 0.0 0.00 0.00 0.00 91 1021.0
20260901143406 77 351 0.0 0.0 0.00 0.00 0.00 89 1021.0
20260901143206 76 252 0.0 0.0 0.00 0.00 0.00 93 1021.0
20260901143007 76 275 0.0 0.0 0.00 0.00 0.00 95 1021.0
20260901142808 76 275 0.0 0.0 0.00 0.00 0.00 95 1020.9
20260901142606 76 275 0.0 0.0 0.00 0.00 0.00 94 1021.0
20260901142406 76 275 0.0 0.0 0.00 0.00 0.00 94 1020.9
20260901142206 75 275 0.0 0.0 0.00 0.00 0.00 95 1020.9
20260901142006 75 275 0.0 0.0 0.00 0.00 0.00 95 1020.9
20260901141808 75 275 0.0 0.0 0.00 0.00 0.00 95 1020.9
20260901141606 75 275 0.0 0.0 0.00 0.00 0.00 96 1020.9
20260901141206 74 275 0.0 0.0 0.00 0.00 0.00 95 1020.9
20260901141006 74 275 0.0 0.0 0.00 0.00 0.00 95 1020.9
20260901140808 74 275 0.0 0.0 0.00 0.00 0.00 95 1020.9
20260901140605 74 275 0.0 0.0 0.00 0.00 0.00 94 1020.9
20260901140406 74 275 0.0 0.0 0.00 0.00 0.00 94 1020.8
20260901140205 74 275 0.0 0.0 0.00 0.00 0.00 94 1020.8
20260901135812 73 272 0.0 0.0 0.00 0.00 0.00 96 1020.8
20260901135606 73 275 0.0 0.0 0.00 0.00 0.00 97 1020.9
20260901135206 73 5 0.0 0.0 0.00 0.00 0.00 97 1020.9
20260901135005 73 5 0.0 0.0 0.00 0.00 0.00 97 1020.9
20260901134808 73 5 0.0 0.0 0.00 0.00 0.00 97 1020.9
20260901134606 73 5 0.0 0.0 0.00 0.00 0.00 97 1020.9
20260901134406 73 5 0.0 0.0 0.00 0.00 0.00 97 1020.9
20260901134005 72 5 0.0 0.0 0.00 0.00 0.00 97 1020.8
20260901133808 72 5 0.0 0.0 0.00 0.00 0.00 97 1020.9
20260901133605 72 5 0.0 0.0 0.00 0.00 0.00 97 1020.9
20260901133206 72 5 0.0 0.0 0.00 0.00 0.00 97 1021.0
20260901133006 72 5 0.0 0.0 0.00 0.00 0.00 97 1021.0
20260901132808 72 5 0.0 0.0 0.00 0.00 0.00 97 1021.1
20260901132606 71 5 0.0 0.0 0.00 0.00 0.00 97 1021.1
20260901132406 71 5 0.0 0.0 0.00 0.00 0.00 97 1021.1
20260901132206 71 5 0.0 0.0 0.00 0.00 0.00 97 1021.1
20260901132005 71 5 0.0 0.0 0.00 0.00 0.00 97 1021.1
20260901131808 71 5 0.0 0.0 0.00 0.00 0.00 97 1021.1
20260901131606 71 5 0.0 0.0 0.00 0.00 0.00 97 1021.1
20260901131006 71 5 0.0 0.0 0.00 0.00 0.00 97 1021.1
20260901130807 70 5 0.0 0.0 0.00 0.00 0.00 97 1021.0
20260901130606 70 5 0.0 0.0 0.00 0.00 0.00 97 1021.1
20260901130408 70 5 0.0 0.0 0.00 0.00 0.00 97 1021.1
20260901130205 70 5 0.0 0.0 0.00 0.00 0.00 97 1021.1
20260901130008 70 5 0.0 0.0 0.00 0.00 0.00 97 1021.0
20260901125807 70 5 0.0 0.0 0.00 0.00 0.00 97 1021.1
20260901125606 70 5 0.0 0.0 0.00 0.00 0.00 97 1021.1
20260901125408 70 5 0.0 0.0 0.00 0.00 0.00 97 1021.0
20260901125205 70 5 0.0 0.0 0.00 0.00 0.00 97 1021.1
20260901125005 69 5 0.0 0.0 0.00 0.00 0.00 97 1021.1
20260901124805 69 5 0.0 0.0 0.00 0.00 0.00 97 1021.0
20260901124407 69 5 0.0 0.0 0.00 0.00 0.00 96 1021.0
20260901124206 69 5 0.0 0.0 0.00 0.00 0.00 96 1021.0
20260901124008 69 5 0.0 0.0 0.00 0.00 0.00 96 1020.8
20260901123806 69 5 0.0 0.0 0.00 0.00 0.00 96 1020.9
20260901123606 69 5 0.0 0.0 0.00 0.00 0.00 96 1020.9
20260901123406 69 5 0.0 0.0 0.00 0.00 0.00 96 1020.9
20260901123205 69 5 0.0 0.0 0.00 0.00 0.00 96 1020.9
20260901123007 69 5 0.0 0.0 0.00 0.00 0.00 96 1020.9
20260901122805 69 5 0.0 0.0 0.00 0.00 0.00 96 1020.9
20260901122608 68 5 0.0 0.0 0.00 0.00 0.00 96 1020.8
20260901122405 68 5 0.0 0.0 0.00 0.00 0.00 96 1020.8
20260901122207 68 5 0.0 0.0 0.00 0.00 0.00 96 1020.8
20260901122005 68 5 0.0 0.0 0.00 0.00 0.00 96 1020.7
20260901121805 68 5 0.0 0.0 0.00 0.00 0.00 96 1020.7
20260901121607 68 5 0.0 0.0 0.00 0.00 0.00 95 1020.8
20260901121405 68 5 0.0 0.0 0.00 0.00 0.00 95 1020.7
20260901121208 68 5 0.0 0.0 0.00 0.00 0.00 95 1020.7
20260901121006 68 5 0.0 0.0 0.00 0.00 0.00 95 1020.6
20260901120805 68 5 0.0 0.0 0.00 0.00 0.00 95 1020.7
20260901120610 68 5 0.0 0.0 0.00 0.00 0.00 96 1020.5
20260901120405 68 5 0.0 0.0 0.00 0.00 0.00 96 1020.5
20260901120207 68 5 0.0 0.0 0.00 0.00 0.00 96 1020.5
20260901120008 68 5 0.0 0.0 0.00 0.00 0.00 96 1020.4
20260901115806 68 5 0.0 0.0 0.00 0.00 0.00 96 1020.4
20260901115405 68 5 0.0 0.0 0.00 0.00 0.00 96 1020.4
20260901115006 68 5 0.0 0.0 0.00 0.00 0.00 96 1020.3
20260901114806 68 5 0.0 0.0 0.00 0.00 0.00 96 1020.2
20260901114406 68 5 0.0 0.0 0.00 0.00 0.00 96 1020.2
20260901114208 68 5 0.0 0.0 0.00 0.00 0.00 96 1020.2
20260901114010 68 5 0.0 0.0 0.00 0.00 0.00 96 1020.2
20260901113605 68 5 0.0 0.0 0.00 0.00 0.00 96 1020.1
20260901113405 68 5 0.0 0.0 0.00 0.00 0.00 96 1020.1
20260901113208 68 5 0.0 0.0 0.00 0.00 0.00 96 1020.1
20260901112405 68 5 0.0 0.0 0.00 0.00 0.00 95 1020.0
20260901112208 68 5 0.0 0.0 0.00 0.00 0.00 94 1019.9
20260901112006 68 5 0.0 0.0 0.00 0.00 0.00 94 1019.9
20260901111805 68 5 0.0 0.0 0.00 0.00 0.00 94 1019.9
20260901111606 68 5 0.0 0.0 0.00 0.00 0.00 94 1019.9
20260901111407 68 5 0.0 0.0 0.00 0.00 0.00 94 1019.8
20260901111005 68 5 0.0 0.0 0.00 0.00 0.00 94 1019.8
20260901110808 68 5 0.0 0.0 0.00 0.00 0.00 94 1019.8
20260901110405 68 5 0.0 0.0 0.00 0.00 0.00 94 1019.9
20260901110007 68 5 0.0 0.0 0.00 0.00 0.00 94 1019.8
20260901105807 68 5 0.0 0.0 0.00 0.00 0.00 94 1019.7
20260901105605 68 5 0.0 0.0 0.00 0.00 0.00 93 1019.7
20260901105404 68 5 0.0 0.0 0.00 0.00 0.00 93 1019.8
20260901104806 68 5 0.0 0.0 0.00 0.00 0.00 93 1019.9
20260901104605 68 5 0.0 0.0 0.00 0.00 0.00 93 1019.9
20260901104204 68 5 0.0 0.0 0.00 0.00 0.00 94 1019.9
20260901103804 68 5 0.0 0.0 0.00 0.00 0.00 94 1019.8
20260901103604 68 5 0.0 0.0 0.00 0.00 0.00 94 1019.8
20260901103406 68 5 0.0 0.0 0.00 0.00 0.00 94 1019.8
20260901103204 68 5 0.0 0.0 0.00 0.00 0.00 94 1019.8
20260901103007 68 5 0.0 0.0 0.00 0.00 0.00 94 1019.8
20260901102806 68 5 0.0 0.0 0.00 0.00 0.00 94 1019.8
20260901102604 68 5 0.0 0.0 0.00 0.00 0.00 94 1019.8
20260901102404 68 5 0.0 0.0 0.00 0.00 0.00 94 1019.8
20260901102205 68 5 0.0 0.0 0.00 0.00 0.00 94 1019.8
20260901102006 68 5 0.0 0.0 0.00 0.00 0.00 94 1019.8
20260901101805 68 5 0.0 0.0 0.00 0.00 0.00 94 1019.8
20260901101607 68 5 0.0 0.0 0.00 0.00 0.00 94 1019.8
20260901101404 68 5 0.0 0.0 0.00 0.00 0.00 94 1019.9
20260901101005 68 5 0.0 0.0 0.00 0.00 0.00 94 1019.8
20260901100805 68 5 0.0 0.0 0.00 0.00 0.00 94 1019.7
20260901100606 68 5 0.0 0.0 0.00 0.00 0.00 93 1019.8
20260901100008 68 5 0.0 0.0 0.00 0.00 0.00 94 1019.7
20260901095804 68 5 0.0 0.0 0.00 0.00 0.00 94 1019.7
20260901095604 68 5 0.0 0.0 0.00 0.00 0.00 93 1019.8
20260901095404 68 5 0.0 0.0 0.00 0.00 0.00 93 1019.8
20260901095207 68 5 0.0 0.0 0.00 0.00 0.00 93 1019.8
20260901095005 68 5 0.0 0.0 0.00 0.00 0.00 93 1019.8
20260901094604 68 5 0.0 0.0 0.00 0.00 0.00 94 1019.7
20260901094404 68 5 0.0 0.0 0.00 0.00 0.00 93 1019.7
20260901094206 68 5 0.0 0.0 0.00 0.00 0.00 93 1019.8
20260901094005 69 5 0.0 0.0 0.00 0.00 0.00 93 1019.7
20260901093604 68 5 0.0 0.0 0.00 0.00 0.00 93 1019.8
20260901093404 69 5 0.0 0.0 0.00 0.00 0.00 93 1019.7
20260901093206 69 5 0.0 0.0 0.00 0.00 0.00 93 1019.8
20260901093006 69 5 0.0 0.0 0.00 0.00 0.00 93 1019.7
20260901092806 69 5 0.0 0.0 0.00 0.00 0.00 93 1019.7
20260901092604 69 5 0.0 0.0 0.00 0.00 0.00 93 1019.8
20260901092407 69 5 0.0 0.0 0.00 0.00 0.00 93 1019.8
20260901091806 69 5 0.0 0.0 0.00 0.00 0.00 93 1019.8
20260901091604 69 5 0.0 0.0 0.00 0.00 0.00 93 1019.8
20260901091407 69 5 0.0 0.0 0.00 0.00 0.00 93 1019.8
20260901091205 69 5 0.0 0.0 0.00 0.00 0.00 93 1019.8
20260901091005 69 5 0.0 0.0 0.00 0.00 0.00 93 1019.8
20260901090806 69 5 0.0 0.0 0.00 0.00 0.00 93 1019.8
20260901090604 69 5 0.0 0.0 0.00 0.00 0.00 93 1019.8
20260901090406 69 5 0.0 0.0 0.00 0.00 0.00 93 1019.8
20260901090205 69 5 0.0 0.0 0.00 0.00 0.00 93 1019.7
20260901090009 69 5 0.0 0.0 0.00 0.00 0.00 94 1019.7
20260901085805 69 5 0.0 0.0 0.00 0.00 0.00 93 1019.7
20260901085605 69 5 0.0 0.0 0.00 0.00 0.00 94 1019.7
20260901085205 69 5 0.0 0.0 0.00 0.00 0.00 93 1019.8
20260901085005 69 5 0.0 0.0 0.00 0.00 0.00 93 1019.7
20260901084605 69 5 0.0 0.0 0.00 0.00 0.00 93 1019.7
20260901084409 69 5 0.0 0.0 0.00 0.00 0.00 92 1019.7
20260901084204 69 5 0.0 0.0 0.00 0.00 0.00 93 1019.6
20260901084004 69 5 0.0 0.0 0.00 0.00 0.00 92 1019.7
20260901083805 69 5 0.0 0.0 0.00 0.00 0.00 92 1019.6
20260901083605 69 5 0.0 0.0 0.00 0.00 0.00 92 1019.6
20260901083408 69 5 0.0 0.0 0.00 0.00 0.00 92 1019.6
20260901082805 69 5 0.0 0.0 0.00 0.00 0.00 93 1019.6
20260901082407 69 5 0.0 0.0 0.00 0.00 0.00 93 1019.7
20260901082205 69 5 0.0 0.0 0.00 0.00 0.00 93 1019.7
20260901082004 69 5 0.0 0.0 0.00 0.00 0.00 93 1019.7
20260901081804 69 5 0.0 0.0 0.00 0.00 0.00 94 1019.7
20260901081606 69 5 0.0 0.0 0.00 0.00 0.00 94 1019.7
20260901081406 69 5 0.0 0.0 0.00 0.00 0.00 94 1019.8
20260901081205 69 5 0.0 0.0 0.00 0.00 0.00 93 1019.7
20260901081007 69 5 0.0 0.0 0.00 0.00 0.00 92 1019.8
20260901080805 69 5 0.0 0.0 0.00 0.00 0.00 92 1019.6
20260901080406 69 5 0.0 0.0 0.00 0.00 0.00 92 1019.6
20260901080205 69 5 0.0 0.0 0.00 0.00 0.00 92 1019.7
20260901080009 69 5 0.0 0.0 0.00 0.00 0.00 92 1019.7
20260901075805 69 5 0.0 0.0 0.00 0.00 0.00 92 1019.6
20260901075606 69 5 0.0 0.0 0.00 0.00 0.00 92 1019.6
20260901075405 69 5 0.0 0.0 0.00 0.00 0.00 92 1019.7
20260901075204 69 5 0.0 0.0 0.00 0.00 0.00 92 1019.7
20260901075007 69 5 0.0 0.0 0.00 0.00 0.00 92 1019.7
20260901074804 69 5 0.0 0.0 0.00 0.00 0.00 92 1019.7
20260901074405 69 5 0.0 0.0 0.00 0.00 0.00 92 1019.7
20260901074204 69 5 0.0 0.0 0.00 0.00 0.00 91 1019.7
20260901074007 69 5 0.0 0.0 0.00 0.00 0.00 91 1019.7
20260901073804 69 5 0.0 0.0 0.00 0.00 0.00 91 1019.7
20260901073605 69 5 0.0 0.0 0.00 0.00 0.00 92 1019.8
20260901073405 69 5 0.0 0.0 0.00 0.00 0.00 91 1019.8
20260901072805 69 5 0.0 0.0 0.00 0.00 0.00 91 1019.8
20260901072605 69 5 0.0 0.0 0.00 0.00 0.00 91 1019.9
20260901072405 69 5 0.0 0.0 0.00 0.00 0.00 91 1019.8
20260901072007 69 5 0.0 0.0 0.00 0.00 0.00 91 1019.9
20260901071805 69 5 0.0 0.0 0.00 0.00 0.00 91 1019.9
20260901071605 69 5 0.0 0.0 0.00 0.00 0.00 91 1019.9
20260901071405 69 5 0.0 0.0 0.00 0.00 0.00 91 1019.9
20260901071206 69 5 0.0 0.0 0.00 0.00 0.00 91 1019.9
20260901071008 69 5 0.0 0.0 0.00 0.00 0.00 91 1019.9
20260901070805 70 5 0.0 0.0 0.00 0.00 0.00 91 1020.0
20260901070605 69 5 0.0 0.0 0.00 0.00 0.00 91 1019.9
20260901070405 70 5 0.0 0.0 0.00 0.00 0.00 91 1019.9
20260901070335 70 5 0.0 0.0 0.00 0.00 0.00 91 1020.1
20260901070006 70 5 0.0 0.0 0.00 0.00 0.00 91 1020.1
20260901065606 70 5 0.0 0.0 0.00 0.00 0.00 91 1020.0
20260901065405 70 5 0.0 0.0 0.00 0.00 0.00 91 1019.9
20260901065005 70 5 0.0 0.0 0.00 0.00 0.00 91 1020.1
20260901064606 70 5 0.0 0.0 0.00 0.00 0.00 91 1020.1
20260901064405 70 5 0.0 0.0 0.00 0.00 0.00 91 1020.2
20260901064207 70 5 0.0 0.0 0.00 0.00 0.00 91 1020.1
20260901063805 70 5 0.0 0.0 0.00 0.00 0.00 91 1020.1
20260901063606 70 5 0.0 0.0 0.00 0.00 0.00 91 1020.1
20260901063404 70 5 0.0 0.0 0.00 0.00 0.00 91 1020.1
20260901063207 70 5 0.0 0.0 0.00 0.00 0.00 91 1020.1
20260901063005 70 5 0.0 0.0 0.00 0.00 0.00 91 1020.1
20260901062805 70 5 0.0 0.0 0.00 0.00 0.00 91 1020.1
20260901062606 70 5 0.0 0.0 0.00 0.00 0.00 91 1020.1
20260901062406 70 5 0.0 0.0 0.00 0.00 0.00 91 1020.2
20260901062207 70 5 0.0 0.0 0.00 0.00 0.00 91 1020.2
20260901062005 70 5 0.0 0.0 0.00 0.00 0.00 91 1020.2
20260901061805 70 5 0.0 0.0 0.00 0.00 0.00 91 1020.2
20260901061606 70 5 0.0 0.0 0.00 0.00 0.00 91 1020.2
20260901061405 70 5 0.0 0.0 0.00 0.00 0.00 91 1020.1
20260901061207 70 5 0.0 0.0 0.00 0.00 0.00 91 1020.1
20260901061005 70 5 0.0 0.0 0.00 0.00 0.00 91 1020.2
20260901060606 70 5 0.0 0.0 0.00 0.00 0.00 91 1020.2
20260901060405 70 5 0.0 0.0 0.00 0.00 0.00 91 1020.2
20260901060207 71 5 0.0 0.0 0.00 0.00 0.00 91 1020.1
20260901060007 71 5 0.0 0.0 0.00 0.00 0.00 91 1020.1
20260901055805 71 5 0.0 0.0 0.00 0.00 0.00 91 1020.1
20260901055606 71 5 0.0 0.0 0.00 0.00 0.00 91 1020.1
20260901055405 71 5 0.0 0.0 0.00 0.00 0.00 91 1020.1
20260901055207 71 5 0.0 0.0 0.00 0.00 0.00 91 1020.1
20260901055005 71 5 0.0 0.0 0.00 0.00 0.00 91 1020.2
20260901054805 71 5 0.0 0.0 0.00 0.00 0.00 92 1020.3
20260901054606 71 5 0.0 0.0 0.00 0.00 0.00 92 1020.2
20260901054405 71 5 0.0 0.0 0.00 0.00 0.00 92 1020.2
20260901053805 71 5 0.0 0.0 0.00 0.00 0.00 93 1020.2
20260901053606 71 5 0.0 0.0 0.00 0.00 0.00 93 1020.2
20260901053405 71 5 0.0 0.0 0.00 0.00 0.00 93 1020.2
20260901053207 71 5 0.0 0.0 0.00 0.00 0.00 93 1020.3
20260901053006 71 5 0.0 0.0 0.00 0.00 0.00 92 1020.3
20260901052805 71 5 0.0 0.0 0.00 0.00 0.00 91 1020.3
20260901052608 71 5 0.0 0.0 0.00 0.00 0.00 90 1020.4
20260901052404 71 5 0.0 0.0 0.00 0.00 0.00 90 1020.3
20260901052206 71 5 0.0 0.0 0.00 0.00 0.00 90 1020.3
20260901051804 71 5 0.0 0.0 0.00 0.00 0.00 90 1020.4
20260901051606 71 5 0.0 0.0 0.00 0.00 0.00 90 1020.4
20260901051405 71 5 0.0 0.0 0.00 0.00 0.00 90 1020.4
20260901051208 71 5 0.0 0.0 0.00 0.00 0.00 90 1020.4
20260901050805 71 5 0.0 0.0 0.00 0.00 0.00 90 1020.4
20260901050606 71 5 0.0 0.0 0.00 0.00 0.00 91 1020.3
20260901050405 71 5 0.0 0.0 0.00 0.00 0.00 91 1020.3
20260901050207 71 5 0.0 0.0 0.00 0.00 0.00 91 1020.3
20260901050006 71 5 0.0 0.0 0.00 0.00 0.00 92 1020.3
20260901045804 71 5 0.0 0.0 0.00 0.00 0.00 91 1020.2
20260901045607 71 5 0.0 0.0 0.00 0.00 0.00 90 1020.3
20260901045404 71 5 0.0 0.0 0.00 0.00 0.00 90 1020.3
20260901045204 71 5 0.0 0.0 0.00 0.00 0.00 90 1020.3
20260901045005 71 5 0.0 0.0 0.00 0.00 0.00 90 1020.3
20260901044805 71 5 0.0 0.0 0.00 0.00 0.00 90 1020.2
20260901044607 72 5 0.0 0.0 0.00 0.00 0.00 90 1020.2
20260901044405 72 5 0.0 0.0 0.00 0.00 0.00 90 1020.2
20260901044006 72 5 0.0 0.0 0.00 0.00 0.00 90 1020.2
20260901043805 72 5 0.0 0.0 0.00 0.00 0.00 90 1020.2
20260901043607 72 5 0.0 0.0 0.00 0.00 0.00 90 1020.2
20260901043404 72 5 0.0 0.0 0.00 0.00 0.00 90 1020.1
20260901043206 72 5 0.0 0.0 0.00 0.00 0.00 90 1020.2
20260901043004 72 5 0.0 0.0 0.00 0.00 0.00 90 1020.1
20260901042607 72 5 0.0 0.0 0.00 0.00 0.00 90 1020.2
20260901042404 72 5 0.0 0.0 0.00 0.00 0.00 90 1020.1
20260901042204 72 5 0.0 0.0 0.00 0.00 0.00 90 1020.1
20260901042005 72 5 0.0 0.0 0.00 0.00 0.00 89 1020.1
20260901041805 72 5 0.0 0.0 0.00 0.00 0.00 89 1020.1
20260901041607 72 5 0.0 0.0 0.00 0.00 0.00 89 1020.1
20260901041405 72 5 0.0 0.0 0.00 0.00 0.00 90 1020.1
20260901041205 72 5 0.0 0.0 0.00 0.00 0.00 90 1020.2
20260901040806 72 5 0.0 0.0 0.00 0.00 0.00 89 1020.1
20260901040607 72 5 0.0 0.0 0.00 0.00 0.00 90 1020.1
20260901040404 72 5 0.0 0.0 0.00 0.00 0.00 90 1020.1
20260901040206 72 5 0.0 0.0 0.00 0.00 0.00 89 1020.0
20260901040012 72 5 0.0 0.0 0.00 0.00 0.00 90 1019.9
20260901035809 72 5 0.0 0.0 0.00 0.00 0.00 90 1019.9
20260901035607 72 5 0.0 0.0 0.00 0.00 0.00 90 1020.0
20260901035208 72 5 0.0 0.0 0.00 0.00 0.00 91 1019.9
20260901035006 72 5 0.0 0.0 0.00 0.00 0.00 91 1020.0
20260901034809 72 5 0.0 0.0 0.00 0.00 0.00 91 1020.1
20260901034606 72 5 0.0 0.0 0.00 0.00 0.00 90 1020.1
20260901034406 72 5 0.0 0.0 0.00 0.00 0.00 89 1020.0
20260901034207 72 5 0.0 0.0 0.00 0.00 0.00 89 1020.0
20260901034007 72 5 0.0 0.0 0.00 0.00 0.00 89 1020.1
20260901033808 72 5 0.0 0.0 0.00 0.00 0.00 89 1020.1
20260901033409 73 5 0.0 0.0 0.00 0.00 0.00 88 1020.1
20260901033007 73 5 0.0 0.0 0.00 0.00 0.00 89 1020.1
20260901032607 73 5 0.0 0.0 0.00 0.00 0.00 90 1020.1
20260901032409 73 5 0.0 0.0 0.00 0.00 0.00 90 1020.0
20260901032207 73 5 0.0 0.0 0.00 0.00 0.00 88 1019.9
20260901031808 73 5 0.0 0.0 0.00 0.00 0.00 89 1020.0
20260901031607 73 5 0.0 0.0 0.00 0.00 0.00 89 1020.1
20260901031409 73 5 0.0 0.0 0.00 0.00 0.00 89 1020.1
20260901031207 73 5 0.0 0.0 0.00 0.00 0.00 90 1020.0
20260901030808 73 5 0.0 0.0 0.00 0.00 0.00 90 1020.1
20260901030607 73 5 0.0 0.0 0.00 0.00 0.00 90 1020.1
20260901030409 73 5 0.0 0.0 0.00 0.00 0.00 87 1020.1
20260901030009 73 5 0.0 0.0 0.00 0.00 0.00 86 1020.1
20260901025808 73 5 0.0 0.0 0.00 0.00 0.00 86 1019.9
20260901025607 73 5 0.0 0.0 0.00 0.00 0.00 86 1020.0
20260901025411 73 5 0.0 0.0 0.00 0.00 0.00 86 1020.0
20260901025207 73 5 0.0 0.0 0.00 0.00 0.00 86 1020.0
20260901025007 73 5 0.0 0.0 0.00 0.00 0.00 86 1020.0
20260901024808 73 5 0.0 0.0 0.00 0.00 0.00 86 1019.9
20260901024607 74 5 0.0 0.0 0.00 0.00 0.00 86 1020.0
20260901024409 74 5 0.0 0.0 0.00 0.00 0.00 86 1020.0
20260901024007 74 5 0.0 0.0 0.00 0.00 0.00 85 1019.9
20260901023809 74 5 0.0 0.0 0.00 0.00 0.00 85 1019.9
20260901023607 74 5 0.0 0.0 0.00 0.00 0.00 85 1019.9
20260901023207 74 5 0.0 0.0 0.00 0.00 0.00 85 1019.9
20260901023007 74 5 0.0 0.0 0.00 0.00 0.00 85 1020.0
20260901022807 74 5 0.0 0.0 0.00 0.00 0.00 85 1020.0
20260901022607 74 5 0.0 0.0 0.00 0.00 0.00 85 1019.9
20260901022408 74 5 0.0 0.0 0.00 0.00 0.00 85 1020.0
20260901022207 74 5 0.0 0.0 0.00 0.00 0.00 85 1020.1
20260901022007 74 5 0.0 0.0 0.00 0.00 0.00 85 1020.0
20260901021808 74 5 0.0 0.0 0.00 0.00 0.00 85 1020.0
20260901021207 74 5 0.0 0.0 0.00 0.00 0.00 85 1019.9
20260901021007 74 5 0.0 0.0 0.00 0.00 0.00 85 1019.9
20260901020808 75 5 0.0 0.0 0.00 0.00 0.00 85 1019.8
20260901020607 75 5 0.0 0.0 0.00 0.00 0.00 85 1019.9
20260901020409 75 5 0.0 0.0 0.00 0.00 0.00 85 1019.9
20260901020209 75 5 0.0 0.0 0.00 0.00 0.00 85 1019.9
20260901015810 75 5 0.0 0.0 0.00 0.00 0.00 84 1019.8
20260901015607 75 5 0.0 0.0 0.00 0.00 0.00 84 1019.9
20260901015207 75 5 0.0 0.0 0.00 0.00 0.00 84 1019.8
20260901015007 75 5 0.0 0.0 0.00 0.00 0.00 84 1019.8
20260901014809 75 5 0.0 0.0 0.00 0.00 0.00 84 1019.8
20260901014607 75 5 0.0 0.0 0.00 0.00 0.00 83 1019.8
20260901014409 75 5 0.0 0.0 0.00 0.00 0.00 84 1019.8
20260901014207 76 5 0.0 0.0 0.00 0.00 0.00 83 1019.7
20260901014007 76 5 0.0 0.0 0.00 0.00 0.00 84 1019.7
20260901013609 76 5 0.0 0.0 0.00 0.00 0.00 84 1019.7
20260901013207 76 5 0.0 0.0 0.00 0.00 0.00 84 1019.6
20260901012607 76 5 0.0 0.0 0.00 0.00 0.00 85 1019.5
20260901012207 76 5 0.0 0.0 0.00 0.00 0.00 83 1019.5
20260901012007 76 5 0.0 0.0 0.00 0.00 0.00 82 1019.4
20260901011810 76 5 0.0 0.0 0.00 0.00 0.00 81 1019.4
20260901011607 76 5 0.0 0.0 0.00 0.00 0.00 80 1019.3
20260901011007 77 5 0.0 0.0 0.00 0.00 0.00 80 1019.2
20260901010808 77 5 0.0 0.0 0.00 0.00 0.00 80 1019.2
20260901010607 77 5 0.0 0.0 0.00 0.00 0.00 80 1019.1
20260901010409 77 5 0.0 0.0 0.00 0.00 0.00 80 1019.1
20260901010208 77 5 0.0 0.0 0.00 0.00 0.00 80 1019.1
20260901010009 77 5 0.0 0.0 0.00 0.00 0.00 80 1019.2
20260901005809 77 5 0.0 0.0 0.00 0.00 0.00 80 1019.2
20260901005607 77 5 0.0 0.0 0.00 0.00 0.00 80 1019.2
20260901005411 78 5 0.0 0.0 0.00 0.00 0.00 79 1019.2
20260901005207 78 5 0.0 0.0 0.00 0.00 0.00 79 1019.3
20260901005007 78 5 0.0 0.0 0.00 0.00 0.00 79 1019.2
20260901004809 78 5 0.0 0.0 0.00 0.00 0.00 79 1019.2
20260901004609 78 5 0.0 0.0 0.00 0.00 0.00 79 1019.3
20260901004407 78 5 0.0 0.0 0.00 0.00 0.00 79 1019.2
20260901004207 78 5 0.0 0.0 0.00 0.00 0.00 79 1019.2
20260901003810 78 5 0.0 0.0 0.00 0.00 0.00 79 1019.1
20260901003607 79 5 0.0 0.0 0.00 0.00 0.00 78 1019.1
20260901003407 79 5 0.0 0.0 0.00 0.00 0.00 79 1019.0
20260901003207 79 5 0.0 0.0 0.00 0.00 0.00 78 1019.0
20260901003007 79 5 0.0 0.0 0.00 0.00 0.00 78 1019.0
20260901002810 79 5 0.0 0.0 0.00 0.00 0.00 78 1019.0
20260901002607 79 5 0.0 0.0 0.00 0.00 0.00 78 1019.0
20260901002407 79 5 0.0 0.0 0.00 0.00 0.00 78 1018.9
20260901002007 79 5 0.0 0.0 0.00 0.00 0.00 77 1018.9
20260901001607 80 5 0.0 0.0 0.00 0.00 0.00 77 1018.9
20260901001407 80 5 0.0 0.0 0.00 0.00 0.00 77 1018.9
20260901001207 80 5 0.0 0.0 0.00 0.00 0.00 77 1018.9
20260901001007 80 5 0.0 0.0 0.00 0.00 0.00 77 1018.9
20260901000809 80 5 0.0 0.0 0.00 0.00 0.00 76 1019.0
20260901000407 80 5 0.0 0.0 0.00 0.00 0.00 76 1019.0
20260901000207 80 5 0.0 0.0 0.00 0.00 0.00 76 1019.0
20260901000008 80 5 0.0 0.0 0.00 0.00 0.00 76 1019.0